CW4221 Weather Reports


time (UTC)temp
F
wind
direction
speed
knots
gust
knots
rain 1hr
in
rain 24hr
in
rain mn
in
humidity
%
barometer
mb
20210723152838 82 217 1.7 7.0 0.00 0.00 0.00 79 1021.7
20210723152352 82 242 3.5 7.0 0.00 0.00 0.00 80 1021.8
20210723151851 81 215 1.7 6.1 0.00 0.00 0.00 80 1021.8
20210723151346 81 228 2.6 6.1 0.00 0.00 0.00 81 1021.8
20210723150841 80 232 3.5 5.2 0.00 0.00 0.00 82 1021.9
20210723150336 80 220 2.6 7.0 0.00 0.00 0.00 83 1021.9
20210723145849 80 205 3.5 7.0 0.00 0.00 0.00 82 1021.9
20210723145345 79 240 1.7 6.1 0.00 0.00 0.00 84 1021.9
20210723144839 79 219 3.5 6.1 0.00 0.00 0.00 85 1021.9
20210723144338 79 248 2.6 6.1 0.00 0.00 0.00 84 1022.0
20210723143853 79 163 3.5 5.2 0.00 0.00 0.00 85 1022.0
20210723143349 79 203 2.6 5.2 0.00 0.00 0.00 86 1022.0
20210723142842 78 230 2.6 5.2 0.00 0.00 0.00 87 1022.0
20210723142337 78 180 2.6 4.3 0.00 0.00 0.00 89 1022.1
20210723141851 78 205 2.6 5.2 0.00 0.00 0.00 88 1022.0
20210723141345 77 213 2.6 7.0 0.00 0.00 0.00 89 1022.0
20210723140839 77 229 3.5 7.0 0.00 0.00 0.00 89 1022.2
20210723140338 77 229 1.7 5.2 0.00 0.00 0.00 89 1022.2
20210723135852 76 215 1.7 6.1 0.00 0.00 0.00 90 1022.1
20210723135346 76 202 2.6 6.1 0.00 0.00 0.00 90 1022.0
20210723134841 76 223 2.6 5.2 0.00 0.00 0.00 91 1022.0
20210723134354 76 200 3.5 5.2 0.00 0.00 0.00 91 1021.9
20210723133846 75 225 2.6 5.2 0.00 0.00 0.00 92 1021.9
20210723133341 75 212 2.6 4.3 0.00 0.00 0.00 92 1021.9
20210723132839 75 220 1.7 3.5 0.00 0.00 0.00 92 1021.7
20210723132352 75 177 0.0 3.5 0.00 0.00 0.00 93 1021.8
20210723131849 74 215 0.9 3.5 0.00 0.00 0.00 94 1021.7
20210723131343 74 198 1.7 3.5 0.00 0.00 0.00 94 1021.7
20210723130839 73 197 1.7 3.5 0.00 0.00 0.00 95 1021.7
20210723130335 73 145 0.9 3.5 0.00 0.00 0.00 95 1021.7
20210723125850 72 215 1.7 4.3 0.00 0.00 0.00 95 1021.7
20210723125345 72 119 0.9 4.3 0.00 0.00 0.00 96 1021.6
20210723124843 72 111 0.0 1.7 0.00 0.00 0.00 96 1021.6
20210723124338 72 111 0.0 1.7 0.00 0.00 0.00 96 1021.5
20210723123852 71 111 0.0 1.7 0.00 0.00 0.00 96 1021.5
20210723123345 71 111 0.0 1.7 0.00 0.00 0.00 96 1021.5
20210723122839 71 111 0.0 0.9 0.00 0.00 0.00 96 1021.4
20210723122354 71 111 0.0 0.0 0.00 0.00 0.00 96 1021.4
20210723121849 70 111 0.0 0.0 0.00 0.00 0.00 96 1021.4
20210723121341 70 111 0.0 0.0 0.00 0.00 0.00 96 1021.4
20210723120853 69 111 0.0 0.0 0.00 0.00 0.00 96 1021.4
20210723120349 69 111 0.0 0.0 0.00 0.00 0.00 96 1021.4
20210723115841 69 111 0.0 0.0 0.00 0.01 0.00 96 1021.5
20210723115336 69 111 0.0 0.0 0.00 0.01 0.00 96 1021.5
20210723114852 68 111 0.0 0.0 0.00 0.01 0.00 96 1021.5
20210723114347 68 111 0.0 0.0 0.00 0.01 0.00 96 1021.4
20210723113842 68 111 0.0 0.0 0.00 0.01 0.00 96 1021.4
20210723113341 68 111 0.0 0.0 0.00 0.01 0.00 95 1021.3
20210723112837 69 111 0.0 0.0 0.00 0.01 0.00 96 1021.3
20210723112352 68 111 0.0 0.0 0.00 0.01 0.00 96 1021.3
20210723111848 68 111 0.0 0.0 0.00 0.01 0.00 96 1021.2
20210723111343 68 111 0.0 0.0 0.00 0.01 0.00 96 1021.2
20210723110838 68 111 0.0 0.0 0.00 0.01 0.00 95 1021.2
20210723110353 68 111 0.0 0.0 0.00 0.01 0.00 95 1021.2
20210723105851 68 111 0.0 0.0 0.00 0.01 0.00 95 1021.2
20210723105346 68 111 0.0 0.0 0.00 0.01 0.00 95 1021.2
20210723104839 68 111 0.0 0.0 0.00 0.01 0.00 95 1021.1
20210723104354 68 111 0.0 0.0 0.00 0.01 0.00 96 1021.1
20210723103848 68 111 0.0 0.0 0.00 0.01 0.00 95 1021.0
20210723103343 68 111 0.0 0.0 0.00 0.01 0.00 95 1021.0
20210723102838 69 111 0.0 0.0 0.00 0.01 0.00 95 1021.0
20210723102337 69 111 0.0 0.0 0.00 0.01 0.00 95 1021.0
20210723101852 68 111 0.0 0.0 0.00 0.01 0.00 95 1021.0
20210723101346 69 111 0.0 0.0 0.00 0.01 0.00 94 1020.9
20210723100841 69 111 0.0 0.0 0.00 0.01 0.00 94 1020.9
20210723100335 70 111 0.0 0.0 0.00 0.01 0.00 95 1021.0
20210723095849 70 111 0.0 0.0 0.00 0.01 0.00 95 1021.0
20210723095343 70 111 0.0 0.0 0.00 0.01 0.00 95 1021.1
20210723094838 70 111 0.0 0.0 0.00 0.01 0.00 95 1021.1
20210723094336 70 111 0.0 0.0 0.00 0.01 0.00 95 1021.1
20210723093852 70 111 0.0 0.0 0.00 0.01 0.00 95 1021.1
20210723093348 70 111 0.0 0.0 0.00 0.01 0.00 95 1021.2
20210723092843 70 111 0.0 0.0 0.00 0.01 0.00 95 1021.1
20210723092339 70 111 0.0 0.0 0.00 0.01 0.00 95 1021.2
20210723091834 70 111 0.0 0.0 0.00 0.01 0.00 95 1021.2
20210723091350 70 111 0.0 0.0 0.00 0.01 0.00 94 1021.1
20210723090849 70 111 0.0 0.0 0.00 0.01 0.00 94 1021.1
20210723090343 70 111 0.0 0.0 0.00 0.01 0.00 94 1021.1
20210723085837 70 111 0.0 0.0 0.00 0.01 0.00 94 1021.1
20210723085351 70 111 0.0 0.0 0.00 0.01 0.00 94 1021.1
20210723084846 70 111 0.0 0.0 0.00 0.01 0.00 94 1021.1
20210723084342 70 111 0.0 0.0 0.00 0.01 0.00 94 1021.1
20210723083837 70 111 0.0 0.0 0.00 0.01 0.00 94 1021.1
20210723083336 70 111 0.0 0.0 0.00 0.01 0.00 94 1021.1
20210723082853 70 111 0.0 0.0 0.00 0.01 0.00 94 1021.1
20210723082348 70 111 0.0 0.0 0.00 0.01 0.00 94 1021.1
20210723081843 70 111 0.0 0.0 0.00 0.01 0.00 94 1021.2
20210723081337 70 111 0.0 0.0 0.00 0.01 0.00 94 1021.2
20210723080852 70 111 0.0 0.0 0.00 0.01 0.00 94 1021.2
20210723080346 70 111 0.0 0.0 0.00 0.01 0.00 94 1021.3
20210723075840 70 111 0.0 0.0 0.00 0.01 0.00 94 1021.3
20210723075337 70 111 0.0 0.0 0.00 0.01 0.00 94 1021.3
20210723074852 70 111 0.0 0.0 0.00 0.01 0.00 94 1021.3
20210723074348 70 111 0.0 0.0 0.00 0.01 0.00 94 1021.3
20210723073843 70 111 0.0 0.0 0.00 0.01 0.00 94 1021.3
20210723073339 70 111 0.0 0.0 0.00 0.01 0.00 93 1021.3
20210723072834 71 111 0.0 0.0 0.00 0.01 0.00 93 1021.3
20210723072350 71 111 0.0 0.0 0.00 0.01 0.00 94 1021.3
20210723071850 71 111 0.0 0.0 0.00 0.01 0.00 94 1021.3
20210723071344 71 111 0.0 0.0 0.00 0.01 0.00 94 1021.3
20210723070838 70 111 0.0 0.0 0.00 0.01 0.00 94 1021.3
20210723070354 71 111 0.0 0.0 0.00 0.01 0.00 94 1021.3
20210723065845 71 111 0.0 0.0 0.00 0.01 0.00 94 1021.3
20210723065339 70 111 0.0 0.0 0.00 0.01 0.00 94 1021.3
20210723064852 70 111 0.0 0.0 0.00 0.01 0.00 94 1021.3
20210723064345 70 111 0.0 0.0 0.00 0.01 0.00 94 1021.3
20210723063845 70 111 0.0 0.0 0.00 0.01 0.00 94 1021.2
20210723063341 70 111 0.0 0.0 0.00 0.01 0.00 94 1021.3
20210723062836 71 111 0.0 0.0 0.00 0.01 0.00 94 1021.3
20210723062351 70 111 0.0 0.0 0.00 0.01 0.00 94 1021.4
20210723061845 70 111 0.0 0.0 0.00 0.01 0.00 94 1021.4
20210723061340 71 111 0.0 0.0 0.00 0.01 0.00 94 1021.4
20210723060834 70 111 0.0 0.0 0.00 0.01 0.00 94 1021.4
20210723060353 70 111 0.0 0.0 0.00 0.01 0.00 93 1021.4
20210723055847 70 111 0.0 0.0 0.00 0.01 0.00 93 1021.4
20210723055341 71 111 0.0 0.0 0.00 0.01 0.00 93 1021.5
20210723054836 71 111 0.0 0.0 0.00 0.01 0.00 93 1021.4
20210723054350 71 111 0.0 0.0 0.00 0.01 0.00 93 1021.4
20210723053845 71 111 0.0 0.0 0.00 0.01 0.00 93 1021.5
20210723053341 71 111 0.0 0.0 0.00 0.01 0.00 92 1021.5
20210723052841 71 111 0.0 0.0 0.00 0.01 0.00 92 1021.6
20210723052335 71 111 0.0 0.0 0.00 0.01 0.00 92 1021.5
20210723051850 72 111 0.0 0.0 0.00 0.01 0.00 92 1021.5
20210723051346 72 111 0.0 0.0 0.00 0.01 0.00 91 1021.5
20210723050841 72 111 0.0 0.0 0.00 0.01 0.00 91 1021.4
20210723050336 73 111 0.0 0.0 0.00 0.01 0.00 91 1021.4
20210723045849 73 111 0.0 0.0 0.00 0.01 0.01 90 1021.4
20210723045342 73 111 0.0 0.0 0.00 0.01 0.01 90 1021.4
20210723044839 73 111 0.0 0.0 0.00 0.01 0.01 90 1021.4
20210723044334 73 111 0.0 0.9 0.00 0.01 0.01 90 1021.3
20210723043850 73 111 0.0 0.9 0.00 0.01 0.01 90 1021.3
20210723043343 73 111 0.0 1.7 0.00 0.01 0.01 90 1021.3
20210723042838 73 111 0.0 1.7 0.00 0.01 0.01 90 1021.3
20210723042353 73 111 0.0 0.9 0.00 0.01 0.01 90 1021.3
20210723041848 73 111 0.0 0.0 0.00 0.01 0.01 89 1021.2
20210723041347 74 111 0.0 1.7 0.00 0.01 0.01 89 1021.2
20210723040842 74 111 0.0 1.7 0.00 0.01 0.01 89 1021.2
20210723040338 74 111 0.0 0.9 0.00 0.01 0.01 89 1021.2
20210723035853 74 111 0.0 0.9 0.00 0.01 0.01 89 1021.3
20210723035348 74 111 0.0 1.7 0.00 0.01 0.01 89 1021.3
20210723034842 74 111 0.9 1.7 0.00 0.01 0.01 89 1021.3
20210723034338 74 111 0.0 0.9 0.00 0.01 0.01 88 1021.3
20210723033837 74 111 0.0 1.7 0.00 0.01 0.01 88 1021.2
20210723033350 74 111 0.9 1.7 0.00 0.01 0.01 88 1021.3
20210723032846 74 111 0.0 1.7 0.00 0.01 0.01 88 1021.2
20210723032341 74 111 0.9 1.7 0.00 0.01 0.01 88 1021.2
20210723031837 74 111 0.0 1.7 0.00 0.01 0.01 88 1021.2
20210723031352 74 111 0.0 0.0 0.00 0.01 0.01 88 1021.1
20210723030849 74 111 0.0 0.9 0.00 0.01 0.01 87 1021.1
20210723030344 75 111 0.0 1.7 0.00 0.01 0.01 86 1021.0
20210723025843 75 111 0.0 1.7 0.00 0.01 0.01 86 1020.9
20210723025339 75 111 0.0 0.0 0.00 0.01 0.01 86 1020.8
20210723024834 75 111 0.0 0.0 0.00 0.01 0.01 85 1020.9
20210723024348 75 111 0.0 0.0 0.00 0.01 0.01 85 1020.8
20210723023843 75 111 0.0 0.0 0.00 0.01 0.01 85 1020.8
20210723023338 75 111 0.0 0.0 0.00 0.01 0.01 84 1020.7
20210723022854 75 111 0.0 0.9 0.00 0.01 0.01 84 1020.7
20210723022352 76 111 0.0 0.9 0.00 0.01 0.01 83 1020.6
20210723021848 76 111 0.0 0.9 0.00 0.01 0.01 82 1020.6
20210723021342 76 111 0.0 0.9 0.00 0.01 0.01 82 1020.5
20210723020838 76 111 0.0 0.9 0.00 0.01 0.01 82 1020.5
20210723020352 77 111 0.0 1.7 0.00 0.01 0.01 82 1020.4
20210723015846 77 111 0.0 1.7 0.00 0.01 0.01 82 1020.4
20210723015341 77 111 0.0 0.9 0.00 0.01 0.01 81 1020.4
20210723014838 77 111 0.0 0.9 0.00 0.01 0.01 80 1020.3
20210723014354 78 111 0.0 0.9 0.00 0.01 0.01 79 1020.4
20210723013848 78 111 0.0 1.7 0.00 0.01 0.01 79 1020.4
20210723013344 78 111 0.0 1.7 0.00 0.01 0.01 78 1020.4
20210723012839 78 111 0.0 1.7 0.00 0.01 0.01 78 1020.4
20210723012354 78 111 0.0 0.9 0.00 0.01 0.01 78 1020.4
20210723011847 79 111 0.0 1.7 0.00 0.01 0.01 77 1020.4
20210723011342 79 111 0.0 1.7 0.00 0.01 0.01 76 1020.4
20210723010840 80 111 0.9 1.7 0.00 0.01 0.01 75 1020.3
20210723010336 80 111 0.9 2.6 0.00 0.01 0.01 75 1020.2
20210723005849 80 111 0.9 2.6 0.00 0.01 0.01 74 1020.2
20210723005343 80 111 0.0 2.6 0.00 0.01 0.01 73 1020.2
20210723004838 81 111 0.9 2.6 0.00 0.01 0.01 72 1020.2
20210723004354 81 111 0.9 2.6 0.00 0.01 0.01 72 1020.2
20210723003850 81 111 1.7 3.5 0.00 0.01 0.01 71 1020.2
20210723003349 81 113 1.7 3.5 0.00 0.01 0.01 70 1020.2
20210723002844 82 105 0.9 3.5 0.00 0.01 0.01 71 1020.1
20210723002339 82 123 0.9 3.5 0.00 0.01 0.01 70 1020.0
20210723001833 82 123 0.9 3.5 0.00 0.01 0.01 71 1020.1
20210723001349 82 92 0.9 2.6 0.00 0.01 0.01 70 1020.1
20210723000845 82 92 1.7 2.6 0.00 0.01 0.01 70 1020.2
20210723000341 83 92 0.9 3.5 0.00 0.01 0.01 70 1020.2
20210722235839 83 92 0.9 2.6 0.00 0.01 0.01 68 1020.2
20210722235334 83 92 0.9 3.5 0.00 0.01 0.01 67 1020.3
20210722234850 83 92 1.7 3.5 0.00 0.01 0.01 67 1020.3
20210722234345 83 92 0.9 2.6 0.00 0.01 0.01 68 1020.3
20210722233841 83 92 0.9 2.6 0.00 0.01 0.01 68 1020.3
20210722233335 84 92 0.0 1.7 0.00 0.01 0.01 68 1020.4
20210722232850 84 92 0.9 1.7 0.00 0.01 0.01 67 1020.4
20210722232342 83 92 0.9 1.7 0.00 0.01 0.01 66 1020.5
20210722231842 84 92 0.0 2.6 0.00 0.01 0.01 69 1020.6
20210722231338 84 92 0.0 2.6 0.00 0.01 0.01 67 1020.6
20210722230853 84 92 0.9 2.6 0.00 0.01 0.01 66 1020.6
20210722230348 84 92 0.9 2.6 0.00 0.01 0.01 63 1020.6
20210722225842 84 92 0.9 3.5 0.00 0.01 0.01 62 1020.6
20210722225337 84 93 1.7 3.5 0.00 0.01 0.01 64 1020.6
20210722224849 85 117 1.7 2.6 0.00 0.01 0.01 62 1020.7
20210722224347 85 117 0.9 2.6 0.00 0.01 0.01 61 1020.7
20210722223843 85 145 1.7 2.6 0.00 0.01 0.01 59 1020.7
20210722223337 85 111 0.0 1.7 0.00 0.01 0.01 62 1020.7
20210722222852 85 111 0.0 2.6 0.00 0.01 0.01 66 1020.7
20210722222347 85 111 1.7 2.6 0.00 0.01 0.01 61 1020.7
20210722221843 85 111 0.9 3.5 0.00 0.01 0.01 61 1020.7
20210722221339 85 134 0.9 3.5 0.00 0.01 0.01 58 1020.7
20210722220839 85 98 0.9 3.5 0.00 0.01 0.01 59 1020.8
20210722220336 85 98 1.7 5.2 0.00 0.01 0.01 62 1020.8
20210722215850 86 111 1.7 5.2 0.00 0.01 0.01 60 1020.9
20210722215344 85 160 0.9 4.3 0.00 0.01 0.01 62 1020.8
20210722214838 85 132 2.6 4.3 0.00 0.01 0.01 61 1020.9
20210722214353 85 103 1.7 5.2 0.00 0.01 0.01 63 1020.9
20210722213848 85 105 1.7 5.2 0.00 0.01 0.01 59 1020.9
20210722213343 86 103 1.7 5.2 0.00 0.01 0.01 60 1021.0
20210722212842 86 178 0.9 5.2 0.00 0.01 0.01 56 1021.0
20210722212338 86 113 0.9 2.6 0.00 0.01 0.01 58 1021.1
20210722211834 86 113 0.9 4.3 0.00 0.01 0.01 60 1021.1
20210722211349 86 189 0.9 4.3 0.00 0.01 0.01 60 1021.2
20210722210844 85 150 1.7 4.3 0.00 0.01 0.01 60 1021.2
20210722210339 86 93 2.6 4.3 0.00 0.01 0.01 61 1021.2
20210722205853 86 232 1.7 4.3 0.00 0.01 0.01 58 1021.2
20210722205352 86 242 1.7 4.3 0.00 0.01 0.01 62 1021.3
20210722204847 85 187 1.7 5.2 0.00 0.01 0.01 57 1021.3
20210722204342 86 230 1.7 5.2 0.00 0.01 0.01 57 1021.4
20210722203838 86 101 1.7 3.5 0.00 0.01 0.01 57 1021.4
20210722203353 85 98 0.9 5.2 0.00 0.01 0.01 58 1021.5
20210722202847 85 98 2.6 6.1 0.00 0.01 0.01 56 1021.5
20210722202341 85 95 2.6 6.1 0.00 0.01 0.01 59 1021.5
20210722201838 85 150 1.7 3.5 0.00 0.01 0.01 58 1021.6
20210722201352 85 115 1.7 5.2 0.00 0.01 0.01 60 1021.6
20210722200847 85 100 1.7 5.2 0.00 0.01 0.01 60 1021.7
20210722200342 86 105 1.7 6.1 0.00 0.01 0.01 55 1021.6
20210722195837 85 104 2.6 6.1 0.00 0.01 0.01 56 1021.6
20210722195351 85 213 2.6 5.2 0.00 0.01 0.01 59 1021.7
20210722194845 85 155 2.6 5.2 0.00 0.01 0.01 59 1021.7
20210722194340 85 239 1.7 5.2 0.00 0.01 0.01 64 1021.7
20210722193839 85 205 1.7 4.3 0.00 0.01 0.01 59 1021.7
20210722193334 85 226 2.6 4.3 0.00 0.01 0.01 59 1021.7
20210722192850 85 158 0.0 4.3 0.00 0.01 0.01 63 1021.8
20210722192345 85 158 1.7 4.3 0.00 0.01 0.01 58 1021.9
20210722191839 85 232 0.9 4.3 0.00 0.01 0.01 63 1021.8
20210722191334 85 220 2.6 4.3 0.00 0.01 0.01 60 1021.9
20210722190850 84 224 0.9 4.3 0.00 0.01 0.01 60 1021.9
20210722190350 85 228 2.6 4.3 0.00 0.01 0.01 59 1021.9
20210722185843 84 209 0.9 4.3 0.00 0.01 0.01 63 1021.9
20210722185339 85 221 2.6 4.3 0.00 0.01 0.01 68 1022.0
20210722184835 84 129 1.7 4.3 0.00 0.01 0.01 63 1022.0
20210722184351 83 216 0.9 4.3 0.00 0.01 0.01 67 1022.0
20210722183846 84 202 2.6 4.3 0.00 0.01 0.01 64 1022.1
20210722183341 84 96 0.9 3.5 0.00 0.01 0.01 63 1022.2
20210722182839 84 106 1.7 2.6 0.00 0.01 0.01 63 1022.1
20210722182354 84 194 0.9 3.5 0.00 0.01 0.01 66 1022.2
20210722181848 84 140 1.7 5.2 0.00 0.01 0.01 65 1022.3
20210722181344 84 133 3.5 5.2 0.00 0.01 0.01 66 1022.2
20210722180839 83 207 1.7 5.2 0.00 0.01 0.01 66 1022.3
20210722180335 83 223 1.7 5.2 0.00 0.01 0.01 65 1022.3
20210722175849 83 215 1.7 6.1 0.00 0.01 0.01 65 1022.4
20210722175344 83 171 2.6 5.2 0.00 0.01 0.01 68 1022.4
20210722174844 83 109 2.6 5.2 0.00 0.01 0.01 69 1022.4
20210722174337 82 114 2.6 5.2 0.00 0.01 0.01 66 1022.4
20210722173853 82 214 0.9 4.3 0.00 0.01 0.01 72 1022.5
20210722173348 83 219 2.6 4.3 0.00 0.01 0.01 71 1022.5
20210722172841 83 105 0.9 3.5 0.00 0.01 0.01 72 1022.6
20210722172337 83 219 1.7 5.2 0.00 0.01 0.01 69 1022.6
20210722171853 83 209 1.7 8.7 0.00 0.01 0.01 73 1022.7
20210722171352 82 241 2.6 8.7 0.00 0.01 0.01 72 1022.8
20210722170847 82 240 3.5 7.0 0.00 0.01 0.01 70 1022.9
20210722170342 82 229 4.3 7.0 0.00 0.01 0.01 73 1022.8
20210722165837 82 198 2.6 4.3 0.00 0.01 0.01 72 1022.9
20210722165351 82 106 1.7 7.0 0.00 0.01 0.01 73 1022.8
20210722164846 82 99 2.6 6.1 0.00 0.01 0.01 73 1022.9
20210722164339 82 98 2.6 4.3 0.00 0.01 0.01 73 1022.9
20210722163838 81 171 1.7 9.6 0.00 0.01 0.01 73 1022.9
20210722163353 81 190 3.5 9.6 0.00 0.01 0.01 73 1022.9
20210722162846 81 227 2.6 6.1 0.00 0.01 0.01 74 1023.0
20210722162342 81 221 3.5 6.1 0.00 0.01 0.01 75 1023.0
20210722161837 81 225 2.6 5.2 0.00 0.01 0.01 77 1022.9
20210722161352 81 221 1.7 6.1 0.00 0.01 0.01 79 1023.0
20210722160846 80 229 2.6 7.0 0.00 0.01 0.01 75 1023.0
20210722160340 80 150 1.7 4.3 0.00 0.01 0.01 76 1023.1
20210722155839 80 121 2.6 5.2 0.00 0.01 0.01 77 1023.0
20210722155353 80 136 2.6 5.2 0.00 0.01 0.01 77 1023.0
20210722154848 80 215 2.6 6.1 0.00 0.01 0.01 79 1023.0
20210722154343 79 100 2.6 5.2 0.00 0.01 0.01 78 1023.0
20210722153838 79 154 2.6 7.0 0.00 0.01 0.01 79 1023.1
20210722153353 79 178 2.6 7.0 0.00 0.01 0.01 77 1023.1